Regional Weather Roundup
Issued by NWS

Home | Current Version | Previous Version | Graphics & Text | Print | Product List | Glossary On
Versions: 1 2 3 4 5 6 7 8 9 10 11 12 13 14 15 16 17 18 19 20 21 22 23 24 25 26 27 28 29 30 31 32 33 34 35 36 37 38 39 40 41 42 43 44 45 46 47 48 49 50
403
ASUS43 KBIS 130210
RWRND

NORTH DAKOTA REGIONAL WEATHER ROUNDUP
NATIONAL WEATHER SERVICE BISMARCK ND
800 PM CST TUE DEC 12 2017

NOTE: "FAIR" INDICATES FEW OR NO CLOUDS BELOW 12,000 FEET WITH NO
SIGNIFICANT WEATHER AND/OR OBSTRUCTIONS TO VISIBILITY.


NDZ001>003-009>011-017-130300-
NORTHWEST NORTH DAKOTA

CITY           SKY/WX    TMP DP  RH WIND       PRES   REMARKS
WILLISTON      CLOUDY    48  25  40 NW23G39   29.69R
MINOT          CLOUDY    48  20  32 W18       29.52F
MINOT AFB      CLOUDY    46  20  36 W21G26    29.50F
$$

NDZ018>021-031>035-040>046-130300-
SOUTHWEST NORTH DAKOTA

CITY           SKY/WX    TMP DP  RH WIND       PRES   REMARKS
BISMARCK       CLOUDY    48  22  35 W14       29.62F
DICKINSON      CLOUDY    49  15  25 W24G36    29.68F
GARRISON         N/A     47  15  27 W18G28    29.57F
HETTINGER ARPT CLOUDY    47  15  27 W22G30    29.76F
$$

NDZ004>008-012>016-024-026-027-054-130300-
NORTHEAST NORTH DAKOTA

CITY           SKY/WX    TMP DP  RH WIND       PRES   REMARKS
GRAND FORKS    CLOUDY    30  28  92 S8        29.52F
GRND FRKS AFB  CLOUDY    28  26  92 S8        29.52F WCI  20
DEVILS LAKE    CLOUDY    38  28  67 W16       29.51F
$$

NDZ022-023-025-028>030-036>039-047>053-130300-
SOUTHEAST NORTH DAKOTA

CITY           SKY/WX    TMP DP  RH WIND       PRES   REMARKS
FARGO          CLOUDY    35  29  78 S12       29.57F
JAMESTOWN      CLOUDY    40  29  64 W9        29.56F
$$





USA.gov is the U.S. government's official web portal to all federal, state and local government web resources and services.